Back to catalog

FENGYUN 1C DEB

AliveSSO
NORAD 30352·DEBRIS·🇨🇳 China

Launched May 10, 1999 from Taiyuan Satellite Launch Center

Loading…

Next Passes (next 24 hours)

TLE

FreshSource: Space-Track

Epoch: Sep 13, 2026, 23:32 UTC

1 30352U 99025ABP 26256.98060101  .00000295  00000-0  19871-3 0  9999
2 30352  98.7481 274.6526 0027314 261.4860 126.7271 14.07754685  7750

Track FENGYUN 1C DEB in real time with AllMySat

Download on the App Store